Location: Artiguedieu
(43.5000°N, 0.5454°E)
Time: 19:03:45
(UTC+00:00)

Vanguard 2 - Visible Passes

Search period start: 27 July 2021 00:00
Search period end: 06 August 2021 00:00
Orbit: 552 x 2937 km, 32.9° (Epoch: 27 July)

Date Brightness Start Highest point End Pass type
(mag) Time Alt. Az. Time Alt. Az. Time Alt. Az.
31 Jul 9.4 04:05:01 10° SSE 04:05:59 11° SSE 04:07:01 10° SE visible
04 Aug 9.2 03:07:55 10° SSE 03:08:17 10° SSE 03:09:04 10° SSE visible
05 Aug 8.8 03:24:40 13° S 03:25:43 14° SSE 03:27:53 10° SE visible
